Jonesville, VA

7:55 PM EDT on April 27, 2017 (GMT -0400)
Jonesville

Weather History for K0VG - August, 2012

Change the Weather History Date:

Sunday, August 12, 2012

  Actual Average (KLNP) Record (KLNP)
Temperature  
Mean Temperature 66 °F -  
Max Temperature 80 °F 78 °F 89 °F (2005)
Min Temperature 53 °F 60 °F 53 °F (2008)
Cooling Degree Days 2    
Growing Degree Days 16 (Base 50)    
Moisture  
Dew Point 57 °F    
Average Humidity 77    
Maximum Humidity 100    
Minimum Humidity 39    
Precipitation  
Precipitation 0.00 in - - ()
Sea Level Pressure  
Sea Level Pressure 30.09 in    
Wind  
Wind Speed 1 mph (NW)    
Max Wind Speed 6 mph    
Max Gust Speed -    
Visibility 9 miles    
Events Fog    
Averages and records for this station are not official NWS values.
T = Trace of Precipitation, MM = Missing Value Source: NWS Daily Summary

Daily Weather History Graph

Daily Weather History Graph

Search for Another Location

Airport or City:

Trip Planner

Search our weather history database for the weather conditions in past years. The results will help you decide how hot, cold, wet, or windy it might be!

Date:

Astronomy

Aug. 12, 2012 Rise Set
Actual Time 6:48 AM EDT 8:26 PM EDT
Civil Twilight 6:20 AM EDT 8:54 PM EDT
Nautical Twilight 5:47 AM EDT 9:27 PM EDT
Astronomical Twilight 5:11 AM EDT 10:02 PM EDT
Moon 2:03 AM EDT (8/12) 4:47 PM EDT (8/12)
Length of Visible Light 14h 33m
Length of Day
13h 38m
Waning Crescent, 24% of the Moon is Illuminated
Aug 12
Waning Crescent
Aug 17
New
Aug 24
First Quarter
Aug 31
Full
Sep 8
Last Quarter

Hourly Weather History & Observations

Time (EDT) Temp. Heat Index Dew Point Humidity Pressure Visibility Wind Dir Wind Speed Gust Speed Precip Events Conditions
12:15 AM 57.2 °F - 57.2 °F 100% 30.07 in 10.0 mi Calm Calm - N/A   Unknown
12:55 AM 57.2 °F - 57.2 °F 100% 30.08 in 10.0 mi Calm Calm - N/A   Unknown
1:15 AM 57.2 °F - 57.2 °F 100% 30.07 in 10.0 mi Calm Calm - N/A   Unknown
1:35 AM 57.2 °F - 57.2 °F 100% 30.07 in 10.0 mi Calm Calm - N/A   Unknown
1:55 AM 55.4 °F - 55.4 °F 100% 30.07 in 10.0 mi Calm Calm - N/A   Unknown
2:15 AM 55.4 °F - 55.4 °F 100% 30.07 in 10.0 mi Calm Calm - N/A   Unknown
2:35 AM 57.2 °F - 55.4 °F 94% 30.07 in 10.0 mi Calm Calm - N/A   Unknown
2:55 AM 55.4 °F - 55.4 °F 100% 30.08 in 10.0 mi Calm Calm - N/A   Unknown
3:35 AM 53.6 °F - 53.6 °F 100% 30.07 in 10.0 mi NNE 3.5 mph - N/A   Unknown
3:55 AM 55.4 °F - 55.4 °F 100% 30.08 in 8.0 mi Calm Calm - N/A   Unknown
4:15 AM 55.4 °F - 55.4 °F 100% 30.07 in 10.0 mi Calm Calm - N/A   Unknown
4:35 AM 53.6 °F - 53.6 °F 100% 30.08 in 10.0 mi Calm Calm - N/A   Unknown
4:55 AM 53.6 °F - 53.6 °F 100% 30.08 in 10.0 mi Calm Calm - N/A   Unknown
5:15 AM 53.6 °F - 53.6 °F 100% 30.09 in 10.0 mi Calm Calm - N/A   Unknown
5:35 AM 53.6 °F - 53.6 °F 100% 30.09 in 10.0 mi Calm Calm - N/A   Unknown
5:55 AM 53.6 °F - 53.6 °F 100% 30.09 in 10.0 mi Calm Calm - N/A   Unknown
6:15 AM 53.6 °F - 53.6 °F 100% 30.09 in 0.2 mi Calm Calm - N/A Fog Fog
6:35 AM 53.6 °F - 53.6 °F 100% 30.09 in 0.5 mi Calm Calm - N/A Fog Fog
6:55 AM 53.6 °F - 53.6 °F 100% 30.10 in 0.2 mi Calm Calm - N/A Fog Fog
7:15 AM 53.6 °F - 53.6 °F 100% 30.11 in 0.2 mi Calm Calm - N/A Fog Fog
7:35 AM 53.6 °F - 53.6 °F 100% 30.11 in 0.2 mi Calm Calm - N/A Fog Fog
7:55 AM 53.6 °F - 53.6 °F 100% 30.11 in 0.2 mi Calm Calm - N/A Fog Fog
8:15 AM 53.6 °F - 53.6 °F 100% 30.11 in 0.2 mi Calm Calm - N/A Fog Fog
8:35 AM 55.4 °F - 55.4 °F 100% 30.12 in 0.2 mi Calm Calm - N/A Fog Fog
8:55 AM 55.4 °F - 55.4 °F 100% 30.13 in 0.2 mi Calm Calm - N/A Fog Fog
9:15 AM 57.2 °F - 57.2 °F 100% 30.13 in 3.0 mi Calm Calm - N/A   Overcast
9:35 AM 59.0 °F - 59.0 °F 100% 30.13 in 10.0 mi Calm Calm - N/A   Scattered Clouds
9:55 AM 62.6 °F - 62.6 °F 100% 30.12 in 10.0 mi Calm Calm - N/A   Clear
10:15 AM 64.4 °F - 59.0 °F 83% 30.12 in 10.0 mi Calm Calm - N/A   Clear
10:35 AM 66.2 °F - 57.2 °F 73% 30.12 in 10.0 mi Calm Calm - N/A   Clear
10:55 AM 68.0 °F - 57.2 °F 68% 30.12 in 10.0 mi Calm Calm - N/A   Clear
11:15 AM 71.6 °F - 57.2 °F 60% 30.12 in 10.0 mi Calm Calm - N/A   Clear
11:35 AM 73.4 °F - 57.2 °F 57% 30.11 in 10.0 mi SE 3.5 mph - N/A   Clear
11:55 AM 73.4 °F - 57.2 °F 57% 30.11 in 10.0 mi East 4.6 mph - N/A   Clear
12:15 PM 73.4 °F - 55.4 °F 53% 30.11 in 10.0 mi ESE 5.8 mph - N/A   Partly Cloudy
12:35 PM 75.2 °F - 55.4 °F 50% 30.11 in 10.0 mi SSE 5.8 mph - N/A   Scattered Clouds
12:55 PM 73.4 °F - 57.2 °F 57% 30.10 in 10.0 mi West 5.8 mph - N/A   Mostly Cloudy
1:15 PM 73.4 °F - 55.4 °F 53% 30.10 in 10.0 mi Calm Calm - N/A   Scattered Clouds
1:35 PM 77.0 °F - 55.4 °F 47% 30.10 in 10.0 mi Calm Calm - N/A   Clear
1:55 PM 77.0 °F - 55.4 °F 47% 30.10 in 10.0 mi West 5.8 mph - N/A   Clear
2:15 PM 77.0 °F - 55.4 °F 47% 30.09 in 10.0 mi NW 3.5 mph - N/A   Clear
2:35 PM 77.0 °F - 55.4 °F 47% 30.09 in 10.0 mi Calm Calm - N/A   Clear
2:55 PM 78.8 °F - 55.4 °F 44% 30.09 in 10.0 mi NE 3.5 mph - N/A   Clear
3:15 PM 80.6 °F 80.3 °F 53.6 °F 39% 30.08 in 10.0 mi West 3.5 mph - N/A   Clear
3:35 PM 78.8 °F - 53.6 °F 42% 30.08 in 10.0 mi Calm Calm - N/A   Clear
3:55 PM 78.8 °F - 53.6 °F 42% 30.07 in 10.0 mi NW 5.8 mph - N/A   Clear
4:15 PM 80.6 °F 80.3 °F 53.6 °F 39% 30.07 in 10.0 mi NNW 3.5 mph - N/A   Clear
4:35 PM 78.8 °F - 53.6 °F 42% 30.06 in 10.0 mi NNE 4.6 mph - N/A   Clear
4:55 PM 78.8 °F - 53.6 °F 42% 30.06 in 10.0 mi Calm Calm - N/A   Clear
5:15 PM 77.0 °F - 55.4 °F 47% 30.06 in 10.0 mi Calm Calm - N/A   Clear
5:35 PM 80.6 °F 80.5 °F 55.4 °F 42% 30.06 in 10.0 mi Calm Calm - N/A   Clear
5:55 PM 80.6 °F 80.3 °F 53.6 °F 39% 30.06 in 10.0 mi Calm Calm - N/A   Clear
6:15 PM 78.8 °F - 55.4 °F 44% 30.06 in 10.0 mi Calm Calm - N/A   Clear
6:35 PM 77.0 °F - 55.4 °F 47% 30.06 in 10.0 mi WSW 3.5 mph - N/A   Clear
6:55 PM 77.0 °F - 57.2 °F 50% 30.06 in 10.0 mi West 3.5 mph - N/A   Clear
7:15 PM 77.0 °F - 59.0 °F 54% 30.06 in 10.0 mi WNW 3.5 mph - N/A   Clear
7:35 PM 77.0 °F - 60.8 °F 57% 30.06 in 10.0 mi Calm Calm - N/A   Clear
7:55 PM 75.2 °F - 62.6 °F 65% 30.07 in 10.0 mi Calm Calm - N/A   Clear
8:15 PM 71.6 °F - 62.6 °F 73% 30.08 in 10.0 mi Calm Calm - N/A   Unknown
8:35 PM 69.8 °F - 62.6 °F 78% 30.08 in 10.0 mi Calm Calm - N/A   Unknown
8:55 PM 68.0 °F - 62.6 °F 83% 30.08 in 10.0 mi Calm Calm - N/A   Unknown
9:15 PM 66.2 °F - 62.6 °F 88% 30.09 in 10.0 mi Calm Calm - N/A   Unknown
9:35 PM 66.2 °F - 62.6 °F 88% 30.10 in 10.0 mi Calm Calm - N/A   Unknown
9:55 PM 64.4 °F - 62.6 °F 94% 30.10 in 10.0 mi Calm Calm - N/A   Unknown
10:15 PM 64.4 °F - 62.6 °F 94% 30.11 in 10.0 mi Calm Calm - N/A   Unknown
10:35 PM 62.6 °F - 60.8 °F 94% 30.11 in 10.0 mi Calm Calm - N/A   Unknown
10:55 PM 62.6 °F - 60.8 °F 94% 30.11 in 10.0 mi Calm Calm - N/A   Unknown
11:15 PM 62.6 °F - 60.8 °F 94% 30.11 in 10.0 mi Calm Calm - N/A   Unknown
11:55 PM 59.0 °F - 59.0 °F 100% 30.11 in 10.0 mi NNE 3.5 mph - N/A   Unknown